SCP
0 0 0 0 0 0 0 0 0 0 0 0 0 0 0 0 0 0 0 0 0 0 0 0 0 0 0 0 0 0 0 0 0 0 0 0 0 0 0 0 0 0 0 0
0 0 0 0 0 0 0 0 0 0 0 0 0 0 0 0 0 0 0 0 0 0 0 0 0 0 0 0 0 0 0 0 0 0 0 0 0 0 0 0 0 0 0 0
0 0 0 0 0 0 0 0 0 0 0 0 0 0 0 0 0 0 0 0 0 0 0 0 0 0 0 0 0 0 0 0 0 0 0 0 0 0 0 0 0 0 0 0
0 0 0 0 0 0 0 0 0 0 0 0 0 0 0 0 0 0 0 0 0 0 0 0 0 0 0 0 0 0 0 0 0 0 0 0 0 0 0 0 0 0 0 0
0 0 0 0 0 0 0 0 0 0 0 0 0 0 0 0 0 0 0 0 0 0 0 0 0 0 0 0 0 0 0 0 0 0 0 0 0 0 0 0 0 0 0 0
0 0 0 0 0 0 0 0 0 0 0 0 0 0 0 0 0 0 0 0 0 0 0 0 0 0 0 0 0 0 0 0 0 0 0 0 0 0 0 0 0 0 0 0
0 0 0 0 0 0 0 0 0 0 0 0 0 0 0 0 0 0 0 0 0 0 0 0 0 0 0 0 0 0 0 0 0 0 0 0 0 0 0 0 0 0 0 0
0 0 0 0 0 0 0 0 0 0 0 0 0 0 0 0 0 0 0 0 0 0 0 0 0 0 0 0 0 0 0 0 0 0 0 0 0 0 0 0 0 0 0 0
0 0 0 0 0 0 0 0 0 0 0 0 0 0 0 0 0 0 0 0 0 0 0 0 0 0 0 0 0 0 0 0 0 0 0 0 0 0 0 0 0 0 0 0
0 0 0 -0 0 0 0 0 0 0 0 0 0 0 0 0 0 0 0 0 0 0 0 0 0 0 0 0 0 0 0 0 0 0 0 0 0 0 0 0 0 0 0 0
0 0 0 0 0 0 0 0 0 0 0 0 0 0 0 0 0 0 0 0 0 0 0 0 0 0 0 0 0 0 0 0 0 0 0 0 0 0 0 0 0 0 0 0
0 0 0 0 0 0 0 0 0 0 0 0 0 0 0 0 0 0 0 0 0 0 0 0 0 0 0 0 0 0 0 0 0 0 0 0 0 0 0 0 0 0 0 0
0 0 0 0 0 0 0 0 0 0 0 0 0 0 0 0 0 0 0 0 0 0 0 0 0 0 0 0 0 0 0 0 0 0 0 0 0 0 0 0 0 0 0 0
0 0 0 0 0 0 0 0 0 0 0 0 0 0 0 0 0 0 0 0 0 0 0 0 0 0 0 0 0 0 0 0 0 0 0 0 0 0 0 0 0 0 0 0
0 0 0 0 0 0 0 0 0 0 -0 -0 -0 0 0 0 0 0 0 0 0 0 0 0 0 0 0 0 0 0 0 0 0 0 0 0 0 0 0 0 0 0 0 0
0 0 0 0 0 0 0 0 0 0 -0 -0 -0 0 0 0 0 0 0 0 0 0 0 0 0 0 0 0 0 0 0 0 0 0 0 0 0 0 0 0 0 0 0 0
0 0 0 0 0 0 0 0 0 0 0 0 0 0 0 0 0 0 0 0 0 0 0 0 0 0 0 0 0 0 0 0 0 0 0 0 0 0 0 0 0 0 0 0
0 0 0 0 0 0 0 0 0 0 0 0 0 0 0 0 0 0 0 0 0 0 0 0 0 0 0 0 0 0 0 0 0 0 0 0 0 0 0 0 0 0 0 0
0 0 0 0 0 0 0 0 0 0 0 0 0 0 0 0 0 0 0 -0 -0 -0 -0 0 0 0 0 0 0 0 0 0 0 0 0 0 0 0 0 0 0 0 0 0
0 0 0 0 0 0 0 0 0 0 0 0 0 0 0 0 0 -0 -0 -0 -0 -0 -0 -0 0 0 0 0 0 0 0 0 0 0 0 0 0 0 0 0 0 0 0 0
0 0 0 0 0 0 0 0 0 0 0 0 0 0 0 0 0 -0 -0 -0 -0 -0 -0 -0 -0 0 0 0 0 0 0 0 0 0 0 0 0 0 0 0 0 0 0 0
0 0 0 0 0 0 0 0 0 0 0 0 0 0 0 0 0 0 0 -0 -0 -0 -0 0 0 0 0 0 0 0 0 0 0 0 0 0 0 0 0 0 0 0 0 0
0 0 0 0 0 0 0 0 0 0 0 0 0 0 0 0 0 0 0 0 0 0 0 0 0 0 0 0 0 0 0 0 0 0 0 0 0 0 0 0 0 0 0 0
0 0 0 0 0 0 0 0 0 0 0 0 0 0 0 0 0 0 0 0 0 0 0 0 0 0 0 0 0 0 0 0 0 0 0 0 0 0 0 0 0 0 0 0
0 0 0 0 0 0 0 0 0 0 0 0 0 0 0 0 0 0 0 0 0 0 0 0 -0 0 0 0 0 0 0 0 0 0 0 0 0 0 0 0 0 0 0 0
0 0 0 0 0 0 0 0 0 0 0 0 0 0 0 0 0 0 0 0 0 0 0 0 -0 0 0 0 0 0 0 0 0 0 0 0 0 0 0 0 0 0 0 0
Wind_Speed
2 4 1 3 3 3 3 3 3 4 2 1 5 7 7 4 2 3 3 3 3 3 2 0 0 0 1 1 0 0 1 0 1 1 1 1 1 2 1 1 2 2 2 2
4 1 3 2 1 1 2 2 3 4 2 1 4 8 7 4 4 4 4 4 3 2 2 1 1 1 0 0 0 1 1 1 1 1 1 1 1 1 2 2 2 2 2 2
4 2 1 2 1 1 2 3 3 3 4 3 4 7 5 3 2 1 2 2 2 3 2 1 1 1 1 1 1 1 2 2 1 1 1 1 1 1 1 2 2 3 3 2
1 2 1 2 1 2 4 2 3 3 1 3 1 5 6 3 3 2 2 2 2 2 2 1 1 2 2 2 2 1 2 1 1 1 1 1 1 2 3 2 2 3 3 3
1 0 1 1 2 2 3 1 0 1 1 2 1 3 8 1 3 4 3 3 3 2 2 1 1 2 2 2 1 1 1 1 1 2 2 2 2 2 2 2 3 3 3 3
1 0 1 1 0 1 2 2 3 3 2 3 4 4 8 4 5 3 3 3 3 2 1 1 1 1 2 2 1 1 1 2 2 2 2 3 3 3 3 3 3 3 3 3
3 1 1 1 2 2 3 4 3 4 3 6 2 4 10 5 3 3 3 3 2 1 1 1 2 2 3 3 3 2 1 2 2 2 3 4 4 4 4 4 4 3 3 3
1 3 1 1 1 2 1 5 5 4 4 5 2 6 7 3 2 2 2 1 1 1 1 1 2 2 2 3 3 2 2 3 3 3 4 3 3 3 3 4 4 4 3 4
3 3 1 1 1 3 3 2 3 4 0 3 6 7 8 1 1 1 0 0 1 2 2 2 2 2 2 2 3 3 3 3 3 3 3 3 3 3 4 4 3 3 4 4
4 2 2 1 2 3 2 4 4 3 2 4 6 5 5 4 3 1 2 2 3 3 3 2 2 2 2 2 3 3 2 3 3 3 3 3 3 3 4 3 4 4 4 4
2 3 2 1 1 2 2 2 3 2 3 3 4 8 5 4 3 3 4 4 3 4 3 3 3 3 2 3 3 3 3 3 3 3 3 3 3 3 3 3 4 4 4 4
2 4 1 3 1 0 1 3 5 3 3 3 3 10 3 3 3 3 4 4 3 3 3 3 3 3 3 3 3 3 3 3 3 3 3 4 3 3 3 4 4 3 4 4
4 4 1 4 2 1 0 1 3 3 3 4 4 9 2 2 2 2 3 4 4 3 3 2 2 2 3 3 3 3 3 4 4 3 3 4 4 3 4 4 4 4 4 4
4 3 5 6 5 4 3 3 4 4 4 5 9 10 8 6 5 5 4 4 4 3 3 3 3 3 3 3 4 3 4 3 4 4 3 4 4 4 4 4 4 4 4 4
3 3 3 4 2 2 4 6 6 8 8 9 8 9 12 7 6 5 4 4 4 4 4 4 4 4 4 4 4 4 4 4 4 4 4 4 5 4 4 4 4 4 4 4
2 2 1 2 1 2 5 8 9 9 8 9 9 13 10 5 3 4 5 5 5 5 5 5 4 4 4 4 4 4 4 4 4 4 5 5 5 4 4 4 4 3 4 4
3 3 2 3 2 3 8 9 10 7 8 8 12 12 5 5 6 6 6 6 6 6 5 5 5 5 5 4 4 4 4 4 4 4 5 5 5 4 4 4 3 3 3 3
5 4 2 0 2 6 7 2 6 6 7 9 8 7 5 7 7 7 6 6 6 5 5 5 4 5 4 4 4 4 4 4 4 5 5 5 5 5 4 4 4 4 3 3
3 5 3 2 2 8 7 2 4 5 7 7 9 9 6 4 5 5 4 4 5 5 5 4 4 4 3 4 4 4 4 4 4 5 5 5 5 5 4 4 4 3 3 3
3 3 4 3 3 7 6 2 2 3 6 4 6 7 4 1 3 6 3 3 4 4 3 3 2 2 3 4 3 3 4 4 5 5 5 5 5 4 4 4 3 2 3 3
3 2 3 4 5 10 6 1 3 3 7 3 4 5 4 5 7 6 4 4 4 3 3 2 2 2 3 3 2 3 4 5 5 5 5 5 4 4 3 2 2 2 2 2
7 6 6 5 5 10 3 5 6 7 3 2 3 4 5 6 6 5 5 4 3 3 3 2 2 3 3 3 2 4 5 5 5 4 5 5 4 3 2 2 2 2 2 2
7 8 7 10 9 4 5 7 5 3 4 4 3 4 4 5 6 5 4 4 3 3 3 2 2 3 4 3 3 4 5 4 4 4 4 4 4 3 3 2 2 2 2 1
4 3 3 6 9 6 6 6 5 5 6 5 5 4 4 5 6 5 4 4 3 3 3 2 2 3 4 4 4 4 4 4 3 4 3 3 3 3 3 2 2 1 2 1
5 5 4 7 8 6 6 7 7 6 5 5 5 4 5 5 6 5 4 4 3 3 3 2 3 3 4 4 4 4 4 3 3 3 2 2 2 2 2 2 2 2 2 2
6 8 8 9 7 6 7 5 4 5 6 6 5 5 4 5 6 5 4 4 3 3 3 3 3 3 4 4 4 4 3 2 2 2 2 2 2 2 2 2 3 4 3 4
Wind_Direction
46 82 180 216 204 196 171 192 241 259 302 300 261 269 277 278 257 251 248 242 247 253 266 296 56 70 68 43 61 157 177 202 94 63 22 345 318 312 315 309 309 312 315 319
55 258 246 221 165 144 200 229 261 287 320 282 281 275 268 247 235 232 227 231 234 259 317 346 6 35 31 242 272 217 208 200 181 183 196 225 264 272 274 294 309 306 303 297
155 243 242 142 128 163 250 222 237 262 325 342 314 293 268 256 235 236 217 212 219 216 228 263 292 271 274 264 250 258 240 221 208 178 80 25 11 333 322 315 315 310 301 292
124 302 106 121 193 196 249 248 239 258 292 297 348 289 278 260 270 253 250 236 239 245 233 242 281 292 268 259 259 256 261 233 216 172 152 162 246 260 265 277 288 299 293 287
236 13 84 181 232 183 214 6 105 247 199 292 275 248 280 286 265 258 251 247 254 257 238 246 265 269 288 294 280 259 268 255 229 208 200 211 247 260 275 284 290 295 296 289
239 249 150 204 42 154 161 67 50 43 66 274 229 207 275 244 228 247 248 248 253 259 272 298 332 354 338 334 324 302 276 286 256 226 223 225 246 264 278 285 284 290 292 291
345 351 3 57 65 31 77 90 26 354 347 255 232 214 252 251 231 221 239 251 251 253 277 328 351 344 333 332 324 314 298 294 279 245 241 239 244 245 249 258 263 276 287 288
154 290 305 22 143 161 161 141 158 204 243 284 289 238 255 260 271 250 241 241 251 271 281 294 299 304 312 317 316 304 295 295 293 270 261 257 254 252 256 256 259 262 268 274
169 246 344 17 41 124 127 149 153 130 148 283 272 282 297 256 312 353 1 338 279 285 292 294 301 302 306 308 307 298 290 298 294 288 282 271 264 261 263 266 265 266 270 276
152 215 303 329 62 29 119 138 110 132 181 271 288 275 262 270 266 284 287 287 293 304 309 309 307 305 311 316 319 323 313 299 301 304 296 292 276 269 269 268 270 273 278 279
134 148 310 22 174 190 112 109 123 135 168 186 277 275 234 225 228 239 256 268 275 282 287 293 305 314 323 332 330 329 329 328 324 314 307 300 289 282 279 271 271 273 280 280
141 126 228 254 268 354 176 179 157 167 227 193 213 271 282 236 244 245 267 281 288 287 292 297 303 317 326 328 325 324 326 324 318 317 313 304 299 295 288 282 279 276 278 279
142 123 60 345 335 348 271 194 166 140 133 176 203 264 318 342 314 292 281 288 293 295 298 306 310 310 311 311 312 314 320 319 319 320 319 312 306 301 289 284 282 280 277 278
119 139 180 206 225 194 217 212 173 154 185 218 228 258 289 300 303 302 292 283 282 280 280 290 298 299 302 305 307 309 315 318 320 321 314 305 300 291 284 283 281 279 274 273
116 177 217 246 248 199 225 221 197 203 207 215 240 246 267 277 275 277 277 283 288 287 286 284 289 294 302 307 311 311 313 315 315 313 305 297 297 294 288 287 283 280 277 276
107 153 163 277 243 241 263 247 220 224 227 238 263 271 267 270 271 275 274 273 273 277 280 284 287 291 293 295 300 307 307 310 312 306 300 300 302 300 295 288 285 284 280 279
136 135 146 262 309 338 272 235 206 210 213 201 230 249 279 291 278 267 265 262 260 269 277 279 278 277 280 283 287 293 298 307 310 303 301 302 300 295 292 287 282 278 277 281
144 137 145 204 35 247 250 207 183 205 236 218 239 261 266 264 279 271 252 245 258 270 276 278 281 287 291 292 295 297 301 307 307 304 304 303 300 292 290 288 281 277 276 275
148 144 139 147 241 276 291 236 176 197 266 220 230 258 275 306 317 288 248 230 251 262 268 268 271 280 286 290 295 302 305 310 308 305 303 304 301 296 291 286 282 277 275 274
73 108 131 146 201 246 256 239 178 127 283 240 213 247 260 3 302 277 286 290 282 278 273 276 278 286 284 287 297 301 302 306 303 301 301 301 297 292 288 285 289 287 280 280
132 130 169 181 228 262 255 205 127 172 255 280 223 237 213 213 234 268 294 297 286 281 284 284 280 277 274 283 295 294 297 294 293 298 302 302 298 288 282 288 292 292 292 298
172 171 187 166 210 253 200 144 189 226 270 265 249 239 233 249 270 281 286 288 292 297 298 292 287 289 289 288 289 288 286 289 297 301 303 303 303 300 300 295 292 288 291 292
198 192 188 197 218 243 186 206 229 238 258 258 250 259 249 260 270 276 277 271 276 274 278 285 275 289 297 294 282 278 285 296 303 301 299 305 313 315 313 302 293 292 287 282
239 190 195 252 262 253 245 250 257 246 249 263 261 264 249 255 263 270 271 272 273 278 277 284 282 286 296 301 294 278 288 299 301 301 303 310 316 321 327 321 310 300 291 289
210 170 205 253 272 295 268 233 244 256 259 265 267 255 242 241 257 261 264 265 266 276 284 277 271 277 286 297 295 294 299 302 299 301 306 313 315 316 323 327 322 305 285 285
190 182 189 228 226 215 254 255 241 248 259 257 258 270 258 232 245 256 257 259 261 267 278 282 283 282 287 294 296 301 301 295 290 301 311 312 312 315 322 332 340 347 346 348